カタログに戻る

ONEWEB-0455

運用中通信PO
NORAD 51645·PAYLOAD·🇬🇧 United Kingdom

打ち上げ Feb 10, 2022 から Guiana Space Centre

Loading…

次のパス (今後24時間)

TLE

最新Source: Space-Track

元期: Sep 14, 2026, 05:49 UTC

1 51645U 22012Z   26257.24290277  .00000181  00000-0  71405-4 0  9994
2 51645  87.5239 247.2004 0015694 209.2948 150.7365 14.23671851238812

AllMySatでONEWEB-0455をリアルタイム追跡

Download on the App Store